Regional Weather Roundup
Issued by NWS

Home | Current Version | Previous Version | Graphics & Text | Print | Product List | Glossary On
Versions: 1 2 3 4 5 6 7 8 9 10 11 12 13 14 15 16 17 18 19 20 21 22 23 24 25 26 27 28 29 30 31 32 33 34 35 36 37 38 39 40 41 42 43 44 45 46 47 48 49 50
000
ASUS44 KMEG 242010
RWRTN
TENNESSEE HOURLY STATE WEATHER ROUNDUP
NATIONAL WEATHER SERVICE MEMPHIS TN
300 PM CDT MON APR 24 2017

TNZ002-004-019-021-049-052-054-088>092-242100-
WEST TENNESSEE

CITY           SKY/WX    TMP DP  RH WIND       PRES   REMARKS
MEMPHIS INTL   MOSUNNY   73  54  51 NE9       29.83F
NWS MEMPHIS      N/A     71 N/A N/A MISG        N/A
JACKSON        CLOUDY    68  55  63 CALM      29.83F
DYERSBURG      MOSUNNY   72  52  49 N5        29.83F
SOMERVILLE     MOSUNNY   70  55  60 VRB7      29.82F
UNION CITY     SUNNY     73  52  46 NE9       29.80F
BOLIVAR        CLOUDY    66  55  68 NE6       29.83F
PARIS          MOSUNNY   70  52  52 VRB5      29.81F
HUNTINGDON     CLOUDY    72  55  56 CALM      29.80F
LEXINGTON      CLOUDY    63  55  77 CALM      29.83F
SAVANNAH       CLOUDY    61  54  77 CALM      29.85F
$$

TNZ008-025-027-028-033-062-065-066-242100-
NORTH MIDDLE TENNESSEE

CITY           SKY/WX    TMP DP  RH WIND       PRES   REMARKS
NASHVILLE      PTSUNNY   67  55  65 NW7       29.83F
PORTLAND       CLOUDY    66  55  68 N7        29.81F
CLARKSVILLE    CLOUDY    68  51  54 CALM      29.82F
SMYRNA         CLOUDY    65  56  72 NW12      29.83F
COOKEVILLE     CLOUDY    61  55  82 VRB5      29.79F
GALLATIN       CLOUDY    66  55  68 N7        29.84F
CROSSVILLE     CLOUDY    62  53  72 W8        29.79F
$$

TNZ061-075-076-078-094-096-097-242100-
SOUTH MIDDLE TENNESSEE

CITY           SKY/WX    TMP DP  RH WIND       PRES   REMARKS
FAYETTEVILLE   CLOUDY    61  55  82 N7        29.82F
TULLAHOMA      CLOUDY    57  54  88 N6        29.83F
WINCHESTER     CLOUDY    57  54  88 NW7       29.83S
MCMINNVILLE    CLOUDY    61  55  82 NW5       29.82S
COLUMBIA       CLOUDY    61  61 100 W3        29.82F
SHELBYVILLE    CLOUDY    63  57  82 NW5       29.83F
$$

TNZ017-018-042-046-047-242100-
NORTHEAST TENNESSEE

CITY           SKY/WX    TMP DP  RH WIND       PRES   REMARKS
TRI CITIES     CLOUDY    60  52  74 NE9G17    29.80S
ELIZABETHTON   CLOUDY    61  54  77 CALM      29.78F
$$

TNZ012-013-036-069-073-074-242100-
CENTRAL EAST TENNESSEE

CITY           SKY/WX    TMP DP  RH WIND       PRES   REMARKS
KNOXVILLE      PTSUNNY   68  54  60 NE10      29.74F
OAK RIDGE      PTSUNNY   71  53  52 NE9       29.76F
DOWNTOWN KNOXV CLOUDY    70  55  60 VRB6      29.75F
GATLINBURG     CLOUDY    64  54  68 VRB5      29.75S
MORRISTOWN     CLOUDY    66  54  63 E8        29.76S
JACKSBORO      CLOUDY    68  54  60 CALM      29.79F
$$

TNZ083-085-099-242100-
SOUTHEAST TENNESSEE

CITY           SKY/WX    TMP DP  RH WIND       PRES   REMARKS
CHATTANOOGA    PTSUNNY   68  55  63 NE9       29.76F
$$

SKY/WX REPORTED AS FAIR MEANS FEW OR NO CLOUDS BELOW
12 THOUSAND FEET.





USA.gov is the U.S. government's official web portal to all federal, state and local government web resources and services.